GPS BIIR-9 (PRN 21)

Last updated on Tue Dec 03 2024 00:03:09 GMT+0000 (Coordinated Universal Time)

1 27704U 03010A 24337.47789565 -.00000064 00000+0 00000+0 0 9993 2 27704 55.0591 346.9942 0258206 331.8188 80.7156 2.00568884158843
UTC large
Height (km)
Speed (km/s)
/
Latitude / Longitude
Inclination (degrees)
Orbital Period (minutes)
Azimuth
Elevation
Range (km)
Doppler Factor

Next 0 passes for location: London (51.5072 / 0.1276)

Sorry there are no passes over London.